Location: Nashville
(36.1660°N, 86.7840°W)
Time: 01:53:49
(UTC-06:00)

Vanguard 2 Rocket - All Passes

Search period start: 28 January 2022 00:00
Search period end: 07 February 2022 00:00
Orbit: 553 x 3325 km, 32.9° (Epoch: 27 January)

Date Brightness Start Highest point End Pass type
(mag) Time Alt. Az. Time Alt. Az. Time Alt. Az.
28 Jan - 00:29:34 10° SW 00:41:20 63° SSE 01:00:04 10° E visible
28 Jan - 02:43:06 10° W 02:58:42 80° S 03:19:22 10° E visible
28 Jan - 04:58:45 10° W 05:17:26 69° SSW 05:36:24 10° ESE visible
28 Jan - 07:16:52 10° W 07:34:31 39° SW 07:49:21 10° SSE daylight
28 Jan - 09:45:46 10° WSW 09:48:40 11° SW 09:51:26 10° SW daylight
28 Jan - 21:22:48 10° SSE 21:27:47 15° SE 21:34:08 10° E night (unlit)
28 Jan - 23:30:21 10° SW 23:40:20 51° SSE 23:56:49 10° E visible
29 Jan - 01:42:46 10° WSW 01:56:24 78° S 02:16:40 10° E visible
29 Jan - 03:57:30 10° W 04:14:49 75° SSW 04:34:57 10° ESE visible
29 Jan - 06:14:17 10° W 06:32:46 50° SSW 06:49:45 10° SE visible
29 Jan - 08:36:04 10° W 08:48:04 20° SW 08:58:27 10° S daylight
29 Jan - 22:31:43 10° SSW 22:39:59 37° SE 22:53:21 10° E night (unlit)
30 Jan - 00:42:55 10° WSW 00:54:37 72° SSE 01:13:38 10° E visible
30 Jan - 02:56:44 10° W 03:12:15 79° S 03:32:52 10° ESE visible
30 Jan - 05:12:25 10° W 05:30:35 60° SSW 05:49:18 10° SE visible
30 Jan - 07:31:24 10° W 07:47:02 29° SW 08:00:48 10° S daylight
30 Jan - 21:33:50 10° S 21:40:14 24° SE 21:49:36 10° E night (unlit)
30 Jan - 23:43:28 10° SW 23:53:25 62° SSE 00:10:25 10° E visible
31 Jan - 01:56:23 10° W 02:09:56 80° S 02:30:13 10° E visible
31 Jan - 04:11:09 10° W 04:28:10 68° SSW 04:48:06 10° ESE visible
31 Jan - 06:28:18 10° W 06:45:31 39° SW 07:01:46 10° SSE daylight
31 Jan - 08:55:15 10° WSW 09:00:28 12° SW 09:05:25 10° SW daylight
31 Jan - 20:37:52 10° SSE 20:40:52 12° SE 20:44:24 10° ESE night (unlit)
31 Jan - 22:44:29 10° SW 22:52:50 48° SSE 23:07:11 10° E visible
01 Feb - 00:56:25 10° WSW 01:08:04 77° S 01:27:10 10° E visible
01 Feb - 03:10:22 10° W 03:25:43 74° SSW 03:46:11 10° ESE visible
01 Feb - 05:26:13 10° W 05:43:34 49° SSW 06:01:44 10° SE visible
01 Feb - 07:47:04 10° W 07:59:30 20° SW 08:11:00 10° S daylight
01 Feb - 21:46:02 10° SSW 21:52:53 34° SE 22:03:55 10° E night (unlit)
01 Feb - 23:56:51 10° WSW 00:06:44 71° SSE 00:23:58 10° E visible
02 Feb - 02:10:01 10° W 02:23:29 78° S 02:43:40 10° ESE visible
02 Feb - 04:24:50 10° W 04:41:22 58° SSW 05:00:53 10° SE visible
02 Feb - 06:42:54 10° W 06:58:09 29° SW 07:13:00 10° S daylight
02 Feb - 20:48:23 10° S 20:53:23 20° SE 21:00:25 10° E night (unlit)
02 Feb - 22:57:38 10° SW 23:05:58 60° SSE 23:20:48 10° E visible
03 Feb - 01:10:02 10° W 01:21:37 79° S 01:40:42 10° E visible
03 Feb - 03:24:02 10° W 03:39:06 66° SSW 03:59:15 10° ESE visible
03 Feb - 05:40:18 10° W 05:56:26 39° SW 06:13:35 10° SSE visible
03 Feb - 08:06:03 10° WSW 08:12:04 12° SW 08:17:55 10° SSW daylight
03 Feb - 21:58:49 10° SW 22:05:47 45° SSE 22:17:46 10° E night (unlit)
04 Feb - 00:10:23 10° WSW 00:20:13 76° S 00:37:30 10° E visible
04 Feb - 02:23:40 10° W 02:36:59 72° SSW 02:56:57 10° ESE visible
04 Feb - 04:38:41 10° W 04:54:28 48° SSW 05:13:10 10° SE visible
04 Feb - 06:58:38 10° W 07:10:49 20° SW 07:22:56 10° S daylight
04 Feb - 21:00:32 10° SSW 21:06:07 30° SE 21:14:52 10° E night (unlit)
04 Feb - 23:11:03 10° WSW 23:19:20 69° SSE 23:34:21 10° E visible
05 Feb - 01:23:41 10° W 01:35:11 76° S 01:54:07 10° ESE visible
05 Feb - 03:37:46 10° W 03:52:23 56° SSW 04:11:55 10° SE visible
05 Feb - 05:54:59 10° W 06:09:16 29° SW 06:24:35 10° S visible
05 Feb - 20:03:08 10° S 20:06:50 17° SE 20:11:41 10° E visible
05 Feb - 22:12:00 10° SW 22:18:57 57° SSE 22:31:25 10° E night (unlit)
06 Feb - 00:24:00 10° W 00:33:47 78° S 00:51:01 10° E visible
06 Feb - 02:37:22 10° W 02:50:24 64° SSW 03:09:56 10° ESE visible
06 Feb - 04:52:51 10° W 05:07:29 37° SW 05:24:49 10° SSE visible
06 Feb - 07:17:56 10° WSW 07:23:36 12° SW 07:29:18 10° SSW daylight
06 Feb - 21:13:19 10° SW 21:19:05 41° SSE 21:28:46 10° E night (unlit)
06 Feb - 23:24:36 10° WSW 23:32:50 75° S 23:47:53 10° E visible
